This is the latest recevied weather packets stored in our database for station/object KC5DAQ-2. If no packets are shown the sender has not sent any weather packets the latest 10 day(s).
| Time | Temp. | Humidity | Pressure | Rain* | Wind** | Luminosity | Snow |
|---|---|---|---|---|---|---|---|
| 1787952481 | 32.78° C | 79% | 1009 hPa | 0 mm | - | 5 W/m² | - |
| 1787952421 | 32.78° C | 79% | 1008.7 hPa | 0 mm | - | 5 W/m² | - |
| 1787952362 | 33.33° C | 78% | 1008.6 hPa | 0 mm | - | 5 W/m² | - |
| 1787952299 | 33.33° C | 78% | 1008.5 hPa | 0 mm | - | 5 W/m² | - |
| 1787952241 | 33.33° C | 78% | 1008.3 hPa | 0 mm | - | 5 W/m² | - |
| 1787952181 | 33.33° C | 78% | 1008.3 hPa | 0 mm | - | 0 W/m² | - |
| 1787952119 | 33.89° C | 77% | 1008.3 hPa | 0 mm | - | 0 W/m² | - |
| 1787952060 | 33.89° C | 77% | 1008.2 hPa | 0 mm | - | 0 W/m² | - |
| 1787952001 | 34.44° C | 77% | 1008.2 hPa | 0 mm | - | 0 W/m² | - |
| 1787951940 | 34.44° C | 76% | 1008.1 hPa | 0 mm | - | 0 W/m² | - |
| 1787951881 | 35° C | 75% | 1008.1 hPa | 0 mm | - | 0 W/m² | - |
| 1787951822 | 35° C | 75% | 1008.2 hPa | 0 mm | - | 0 W/m² | - |
| 1787951760 | 35° C | 74% | 1008.1 hPa | 0 mm | - | 0 W/m² | - |
| 1787951699 | 35.56° C | 73% | 1008.2 hPa | 0 mm | - | 7 W/m² | - |
| 1787951641 | 35.56° C | 73% | 1008.2 hPa | 0 mm | - | 7 W/m² | - |
| 1787951581 | 36.11° C | 73% | 1008.2 hPa | 0 mm | - | 7 W/m² | - |
| 1787951520 | 36.11° C | 73% | 1008.2 hPa | 0 mm | - | 7 W/m² | - |
| 1787951460 | 36.67° C | 73% | 1007.9 hPa | 0 mm | - | 11 W/m² | - |
| 1787951399 | 36.67° C | 73% | 1007.6 hPa | 0 mm | - | 11 W/m² | - |
| 1787951339 | 36.67° C | 73% | 1007.5 hPa | 0 mm | - | 19 W/m² | - |
| 1787951281 | 36.67° C | 73% | 1007.3 hPa | 0 mm | - | 26 W/m² | - |
| 1787951220 | 36.67° C | 73% | 1007 hPa | 0 mm | - | 26 W/m² | - |
| 1787951160 | 36.67° C | 73% | 1006.9 hPa | 0 mm | - | 30 W/m² | - |
| 1787951099 | 36.67° C | 73% | 1006.8 hPa | 0 mm | - | 35 W/m² | - |
| 1787951039 | 36.67° C | 73% | 1006.9 hPa | 0 mm | - | 77 W/m² | - |
* Rain latest hour (hover to see other rain measurements)
** Current wind speed in m/s (hover to see current wind gust speed)